When you browse on this site, cookies collect data to enhance your experience and personalize the content and advertising you see.
Visit our Privacy Policy to learn more. By continuing to use the site, you agree to this use of cookies and data.
  • In Hungary
  • List of Countries
  • For 7 days
  • Water Temperature
  • Satellite Maps
  • Weather Map
  • News
  • Weather Widgets
  • user-avatar
    Login

    Hourly Weather Lethem

    Today, 16 January, Wednesday

    Time Temperature Precipitation Wind Pressure Humidity
    00:00 +29°C° 0 mm 4 mps 752 mmHg 67%
    01:00 +28°C° 0 mm 4 mps 752 mmHg 70%
    02:00 +27°C° 0 mm 4 mps 752 mmHg 73%
    03:00 +27°C° 0 mm 4 mps 752 mmHg 75%
    04:00 +27°C° 0 mm 4 mps 752 mmHg 77%
    05:00 +26°C° 0 mm 4 mps 752 mmHg 79%
    06:00 +27°C° 0 mm 4 mps 752 mmHg 75%
    07:00 +28°C° 0 mm 5 mps 753 mmHg 72%
    08:00 +29°C° 0 mm 5 mps 753 mmHg 69%
    09:00 +30°C° 0 mm 5 mps 753 mmHg 62%
    10:00 +33°C° 0 mm 5 mps 753 mmHg 54%
    11:00 +35°C° 0 mm 5 mps 753 mmHg 47%
    12:00 +36°C° 0 mm 5 mps 752 mmHg 45%
    13:00 +37°C° 0 mm 4 mps 751 mmHg 42%
    14:00 +38°C° 0 mm 4 mps 751 mmHg 39%
    15:00 +37°C° 0 mm 4 mps 750 mmHg 41%
    16:00 +37°C° 0 mm 4 mps 750 mmHg 42%
    17:00 +36°C° 0 mm 4 mps 750 mmHg 43%
    18:00 +35°C° 0 mm 4 mps 750 mmHg 50%
    19:00 +33°C° 0 mm 4 mps 750 mmHg 56%
    20:00 +30°C° 0 mm 4 mps 751 mmHg 62%
    21:00 +30°C° 0 mm 4 mps 751 mmHg 64%
    22:00 +29°C° 0 mm 5 mps 752 mmHg 66%
    23:00 +29°C° 0 mm 5 mps 752 mmHg 68%

    Tomorrow, 17 January, Thursday

    Time Temperature Precipitation Wind Pressure Humidity
    00:00 +28°C° 0 mm 5 mps 752 mmHg 70%
    01:00 +28°C° 0 mm 5 mps 752 mmHg 72%
    02:00 +27°C° 0 mm 5 mps 752 mmHg 75%
    03:00 +27°C° 0 mm 5 mps 752 mmHg 75%
    04:00 +27°C° 0 mm 5 mps 752 mmHg 76%
    05:00 +27°C° 0 mm 5 mps 752 mmHg 76%
    06:00 +27°C° 0 mm 5 mps 752 mmHg 74%
    07:00 +28°C° 0 mm 5 mps 753 mmHg 71%
    08:00 +28°C° 0 mm 6 mps 753 mmHg 68%
    09:00 +30°C° 0 mm 6 mps 753 mmHg 61%
    10:00 +33°C° 0 mm 5 mps 753 mmHg 53%
    11:00 +35°C° 0 mm 5 mps 753 mmHg 45%
    12:00 +37°C° 0 mm 5 mps 752 mmHg 42%
    13:00 +39°C° 0 mm 5 mps 751 mmHg 38%
    14:00 +40°C° 0 mm 5 mps 749 mmHg 35%
    15:00 +39°C° 0 mm 5 mps 749 mmHg 37%
    16:00 +38°C° 0 mm 4 mps 749 mmHg 38%
    17:00 +37°C° 0 mm 4 mps 748 mmHg 39%
    18:00 +36°C° 0 mm 5 mps 749 mmHg 45%
    19:00 +34°C° 0 mm 5 mps 750 mmHg 50%
    20:00 +33°C° 0 mm 5 mps 751 mmHg 56%
    21:00 +32°C° 0 mm 5 mps 751 mmHg 59%
    22:00 +30°C° 0 mm 5 mps 752 mmHg 62%
    23:00 +29°C° 0 mm 5 mps 752 mmHg 65%

    Day after tomorrow, 18 January, Friday

    Time Temperature Precipitation Wind Pressure Humidity
    00:00 +28°C° 0 mm 5 mps 752 mmHg 67%
    01:00 +28°C° 0 mm 5 mps 751 mmHg 69%
    02:00 +28°C° 0 mm 5 mps 751 mmHg 71%
    03:00 +27°C° 0 mm 5 mps 751 mmHg 72%
    04:00 +27°C° 0 mm 5 mps 751 mmHg 74%
    05:00 +27°C° 0 mm 5 mps 751 mmHg 75%
    06:00 +27°C° 0 mm 5 mps 751 mmHg 72%
    07:00 +28°C° 0 mm 5 mps 752 mmHg 68%
    08:00 +29°C° 0 mm 6 mps 752 mmHg 65%
    09:00 +32°C° 0 mm 6 mps 752 mmHg 57%
    10:00 +34°C° 0 mm 5 mps 752 mmHg 50%
    11:00 +36°C° 0 mm 5 mps 752 mmHg 42%
    12:00 +37°C° 0 mm 5 mps 751 mmHg 39%
    13:00 +39°C° 0 mm 5 mps 750 mmHg 35%
    14:00 +40°C° 0 mm 5 mps 749 mmHg 32%
    15:00 +39°C° 0 mm 5 mps 748 mmHg 32%
    16:00 +39°C° 0 mm 5 mps 748 mmHg 33%
    17:00 +37°C° 0 mm 5 mps 747 mmHg 33%
    18:00 +36°C° 0 mm 5 mps 748 mmHg 38%
    19:00 +35°C° 0 mm 5 mps 749 mmHg 43%
    20:00 +33°C° 0 mm 4 mps 749 mmHg 47%
    21:00 +32°C° 0 mm 5 mps 750 mmHg 52%
    22:00 +32°C° 0 mm 5 mps 751 mmHg 56%
    23:00 +30°C° 0 mm 5 mps 751 mmHg 61%

    19 January, Saturday

    Time Temperature Precipitation Wind Pressure Humidity
    00:00 +29°C° 0 mm 5 mps 751 mmHg 62%
    01:00 +29°C° 0 mm 5 mps 750 mmHg 64%
    02:00 +28°C° 0 mm 5 mps 750 mmHg 65%
    03:00 +27°C° 0 mm 5 mps 750 mmHg 67%
    04:00 +27°C° 0 mm 4 mps 750 mmHg 68%
    05:00 +27°C° 0 mm 4 mps 750 mmHg 70%
    06:00 +27°C° 0 mm 5 mps 751 mmHg 68%
    07:00 +28°C° 0 mm 5 mps 752 mmHg 67%
    08:00 +29°C° 0 mm 6 mps 753 mmHg 65%
    09:00 +32°C° 0 mm 6 mps 753 mmHg 58%
    10:00 +34°C° 0 mm 5 mps 752 mmHg 51%
    11:00 +36°C° 0 mm 5 mps 752 mmHg 44%
    12:00 +37°C° 0 mm 5 mps 751 mmHg 41%
    13:00 +39°C° 0 mm 5 mps 750 mmHg 38%
    14:00 +40°C° 0 mm 4 mps 748 mmHg 35%
    15:00 +38°C° 0 mm 4 mps 748 mmHg 36%
    16:00 +38°C° 0 mm 4 mps 748 mmHg 37%
    17:00 +37°C° 0 mm 4 mps 747 mmHg 38%
    18:00 +36°C° 0 mm 5 mps 748 mmHg 42%
    19:00 +35°C° 0 mm 5 mps 749 mmHg 46%
    20:00 +33°C° 0 mm 5 mps 749 mmHg 50%
    21:00 +32°C° 0 mm 5 mps 750 mmHg 54%
    22:00 +32°C° 0 mm 5 mps 750 mmHg 58%
    23:00 +30°C° 0 mm 5 mps 751 mmHg 61%

    20 January, Sunday

    Time Temperature Precipitation Wind Pressure Humidity
    00:00 +29°C° 0 mm 5 mps 751 mmHg 63%
    01:00 +28°C° 0 mm 5 mps 751 mmHg 65%
    02:00 +28°C° 0 mm 5 mps 750 mmHg 67%
    03:00 +28°C° 0 mm 5 mps 750 mmHg 68%
    04:00 +27°C° 0 mm 5 mps 750 mmHg 69%
    05:00 +27°C° 0 mm 5 mps 751 mmHg 71%
    06:00 +28°C° 0 mm 6 mps 751 mmHg 68%
    07:00 +28°C° 0 mm 6 mps 752 mmHg 65%
    08:00 +29°C° 0 mm 6 mps 752 mmHg 62%
    09:00 +32°C° 0 mm 6 mps 752 mmHg 55%
    10:00 +34°C° 0 mm 6 mps 752 mmHg 48%
    11:00 +36°C° 0 mm 6 mps 752 mmHg 41%
    12:00 +37°C° 0 mm 5 mps 751 mmHg 37%
    13:00 +39°C° 0 mm 5 mps 750 mmHg 34%
    14:00 +40°C° 0 mm 5 mps 749 mmHg 30%
    15:00 +39°C° 0 mm 5 mps 748 mmHg 31%
    16:00 +39°C° 0 mm 6 mps 748 mmHg 32%
    17:00 +39°C° 0 mm 6 mps 748 mmHg 33%
    18:00 +36°C° 0 mm 6 mps 748 mmHg 38%
    19:00 +34°C° 0 mm 6 mps 749 mmHg 44%
    20:00 +33°C° 0 mm 6 mps 749 mmHg 49%
    21:00 +32°C° 0 mm 5 mps 750 mmHg 53%
    22:00 +30°C° 0 mm 5 mps 750 mmHg 56%
    23:00 +29°C° 0 mm 5 mps 751 mmHg 59%

    21 January, Monday

    Time Temperature Precipitation Wind Pressure Humidity
    00:00 +29°C° 0 mm 5 mps 751 mmHg 63%
    01:00 +28°C° 0 mm 5 mps 750 mmHg 66%
    02:00 +27°C° 0 mm 4 mps 750 mmHg 69%
    03:00 +27°C° 0 mm 4 mps 750 mmHg 71%
    04:00 +26°C° 0 mm 4 mps 750 mmHg 72%
    05:00 +26°C° 0 mm 4 mps 750 mmHg 74%
    06:00 +27°C° 0 mm 5 mps 751 mmHg 72%
    07:00 +27°C° 0 mm 5 mps 752 mmHg 70%
    08:00 +28°C° 0 mm 6 mps 752 mmHg 67%
    09:00 +30°C° 0 mm 5 mps 752 mmHg 58%
    10:00 +33°C° 0 mm 5 mps 752 mmHg 49%
    11:00 +35°C° 0 mm 5 mps 752 mmHg 40%
    12:00 +36°C° 0 mm 5 mps 751 mmHg 36%
    13:00 +39°C° 0 mm 5 mps 750 mmHg 32%
    14:00 +40°C° 0 mm 5 mps 749 mmHg 28%
    15:00 +40°C° 0 mm 5 mps 749 mmHg 28%
    16:00 +39°C° 0 mm 5 mps 748 mmHg 28%
    17:00 +39°C° 0 mm 5 mps 747 mmHg 28%
    18:00 +36°C° 0 mm 5 mps 748 mmHg 33%
    19:00 +35°C° 0 mm 5 mps 749 mmHg 39%
    20:00 +33°C° 0 mm 5 mps 750 mmHg 44%
    21:00 +32°C° 0 mm 5 mps 750 mmHg 49%
    22:00 +32°C° 0 mm 5 mps 751 mmHg 54%
    23:00 +30°C° 0 mm 5 mps 751 mmHg 59%
    Show more